PROMETHEUS 2-1

Last updated on Sat Aug 30 2025 00:03:48 GMT+0000 (Coordinated Universal Time)

1 41854U 16067G 25241.20211031 .00090747 00000+0 12785-2 0 9997 2 41854 98.0644 104.4146 0003391 333.1994 26.9083 15.56312971482915
UTC large
Height (km)
Speed (km/s)
/
Latitude / Longitude
Inclination (degrees)
Orbital Period (minutes)
Azimuth
Elevation
Range (km)
Doppler Factor

Next 0 passes for location: London (51.5072 / 0.1276)

Sorry there are no passes over London.